Location: Alulod
(14.2076°N, 120.8898°E)
Time: 03:15:23
(UTC+00:00)

CZ-4 R/B - Pass Details

Date: 13 December 2025
Orbit: 675 x 744 km, 98.7° (Epoch: 15 January)

Event Time Altitude Azimuth Distance (km) Brightness Sun altitude
Rises 20:39:09 0° 15° (NNE) 3,017 7.0 -21.8°
Reaches altitude 10° 20:41:22 10° 17° (NNE) 2,104 6.2 -21.3°
Maximum altitude 20:45:57 75° 102° (ESE) 703 3.9 -20.2°
Drops below altitude 10° 20:50:35 10° 188° (S) 2,125 6.4 -19.2°
Sets 20:52:50 0° 189° (S) 3,049 7.2 -18.7°
